Location: Washington
(38.8950°N, 77.0370°W)
Time: 09:34:01
(UTC-04:00)

IDEFIX/ARIANE 42P - Visible Passes

Search period start: 29 September 2016 00:00
Search period end: 09 October 2016 00:00
Orbit: 786 x 802 km, 98.2° (Epoch: 29 September)

Date Brightness Start Highest point End Pass type
(mag) Time Alt. Az. Time Alt. Az. Time Alt. Az.
29 Sep 6.0 20:28:27 10° WSW 20:29:53 11° W 20:31:20 10° WNW visible
30 Sep 5.3 19:57:19 10° SW 20:01:16 22° W 20:05:15 10° NW visible
01 Oct 5.8 06:32:02 10° NE 06:35:39 18° E 06:39:13 10° SE visible
01 Oct 4.2 19:27:52 10° SSW 19:32:45 40° W 19:37:41 10° NNW visible
03 Oct 5.7 20:13:03 10° SW 20:16:04 15° W 20:19:07 10° NW visible
04 Oct 4.8 19:43:01 10° SSW 19:47:30 29° W 19:52:01 10° NW visible
05 Oct 6.1 06:19:17 10° ENE 06:21:51 14° E 06:24:24 10° ESE visible
05 Oct 3.6 19:13:57 10° S 19:19:02 53° W 19:24:12 10° NNW visible
06 Oct 6.0 20:29:57 10° W 20:30:55 10° W 20:31:53 10° WNW visible
07 Oct 5.3 19:58:25 10° SW 20:02:17 21° W 20:06:10 10° NW visible
08 Oct 5.7 06:32:57 10° NE 06:36:40 19° E 06:40:21 10° SE visible
08 Oct 4.3 19:28:55 10° SSW 19:33:46 38° W 19:38:39 10° NNW visible
